www.pogodaiklimat.ru

Погода и климат >> Архив погоды >> Таиланд >> Пичит Агромет


ПОГОДА в Пичит Агромете

  • Прогноз погоды в Пичит Агромете
  • Монитор погоды в Пичит Агромете

АРХИВ ПОГОДЫ в Пичит Агромете

Время (UTC), дата Ветер
(напр.,м/с)
 
Видим.   Явления Облачность Т
(С)
Тd
(С)
f
(%)
Тe
(С)
Тes
(С)
Комфортность P
(гПа)
Po
(гПа)
Тmin
(С)
Tmax
(С)
R
(мм)
R24
(мм)
S
(см)
09 14.07 Ю 6 10 км 10/3 600 м
[Sc Ac As Cs]
+33.5 +26.6 67 +50 +52 опасность
перегрева
1003.6 999.7
12 14.07 штиль 0 10 км 10/3 600 м
[Sc Ac As Cs]
+31.5 +26.6 75 +48 +48 опасность
перегрева
1003.5 999.6 +34.0
15 14.07 СЗ 4 8000 м дымка 10/3 600 м
[Sc Ac As Cs]
+29.0 +23.6 73 +40 +40 очень
душно
1005.6 1001.7
18 14.07 штиль 0 6000 м дымка 10/3 600 м
[Sc Ac As Cs]
+27.0 +24.8 88 +39 +39 очень
душно
1005.6 1001.6
21 14.07 штиль 0 5000 м дымка 10/3 600 м
[Sc Ac As Cs]
+26.7 +24.5 88 +38 +38 очень
душно
1004.5 1000.6
00 15.07 штиль 0 6000 м дымка 10/3 600 м
[Sc Ac As Cs]
+26.6 +24.9 90 +38 +39 очень
душно
1004.6 1000.7 +26.0
03 15.07 Ю 4 8000 м мгла 9/3 600 м
[Sc Ac As Cs]
+30.3 +22.5 63 +40 +44 очень
душно
1005.4 1001.5
06 15.07 Ю 4 10 км 10/3 600 м
[Cu med, cong Ac As Cs]
+32.5 +23.9 61 +44 +49 опасность
перегрева
1004.4 1000.5
09 15.07 штиль 0 10 км 10/3 600 м
[Sc Ac As Cs]
+32.8 +23.8 59 +44 +48 опасность
перегрева
1002.8 999.0
12 15.07 ЮВ 2 8000 м дымка 9/1 600 м
[Sc Ac As Cs]
+30.8 +26.2 77 +47 +47 опасность
перегрева
1002.5 998.6 +33.2
15 15.07 штиль 0 7000 м дымка 9/0
[Ac As Cs]
+29.0 +25.8 83 +43 +43 опасность
перегрева
1005.2 1001.3
18 15.07 СЗ 2 6000 м дымка 9/0
[Ac As Cs]
+28.1 +24.4 80 +39 +39 очень
душно
1004.7 1000.8
21 15.07 штиль 0 6000 м дымка 9/0
[Ac As Cs]
+26.8 +24.5 87 +38 +38 очень
душно
1003.6 999.7
00 16.07 ЮВ 2 6000 м дымка 9/0
[Ac As Cs]
+27.0 +25.1 89 +39 +40 очень
душно
1005.0 1001.1 +25.9
03 16.07 Ю 6 10 км 9/1 600 м
[Cu hum Ac lent Cs]
+31.7 +24.7 67 +45 +48 опасность
перегрева
1005.6 1001.7
06 16.07 ЮЗ 4 12 км 10/3 600 м
[Cu hum Cs]
+33.6 +24.5 59 +46 +54 опасность
перегрева
1004.0 1000.2
09 16.07 ЮЗ 2 12 км 10/1 600 м
[Cu hum Cs]
+34.9 +21.9 47 +43 +49 опасность
перегрева
1001.1 997.3
12 16.07 штиль 0 10 км 10/1 600 м
[Cb cap Cs]
+32.7 +26.1 68 +48 +48 опасность
перегрева
1001.0 997.1 +35.3
15 16.07 ЮЗ 6 8000 м дымка 10/5 600 м
[Sc diur, vesp Ac trans Cs]
+30.0 +26.5 82 +46 +46 опасность
перегрева
1003.5 999.6
18 16.07 штиль 0 8000 м дымка 8/1 600 м
[Sc Ac trans Cs]
+28.2 +25.5 85 +41 +41 опасность
перегрева
1003.0 999.1
21 16.07 Ю 5 7000 м дымка 10/0
[Ac lent Cs]
+26.7 +25.3 92 +39 +39 очень
душно
1002.8 998.9
00 17.07 В 2 8000 м дымка 10/1 600 м
[Sc Ac lent Cs]
+27.5 +25.4 88 +40 +41 очень
душно
1003.1 999.1 +26.0
03 17.07 ЮЗ 2 12 км 10/3 600 м
[Cu hum Ac trans Cs]
+32.9 +24.0 60 +45 +50 опасность
перегрева
1004.1 1000.3
06 17.07 СВ 2 15 км 10/3 600 м
[Cu hum Cs]
+35.2 +24.3 53 +47 +59 опасность
перегрева
1002.8 999.0
09 17.07 ЮЗ 4 12 км 10/3 600 м
[Cb cap Cs]
+35.5 +23.8 51 +47 +50 опасность
перегрева
1000.5 996.7
12 17.07 штиль 0 8000 м дымка 10/1 600 м
[Cu hum Cs]
+32.5 +26.4 70 +49 +49 опасность
перегрева
1000.3 996.4 +35.8
15 17.07 Ю 4 8000 м дымка 10/0
[As op Cs]
+30.4 +27.4 84 +49 +49 опасность
перегрева
1002.9 999.0
18 17.07 Ю 4 8000 м дымка 10/0
[Cs]
+29.0 +25.5 81 +43 +43 опасность
перегрева
1003.0 999.1
21 17.07 штиль 0 8000 м дымка 10/0
[Cs]
+27.9 +25.6 87 +41 +41 опасность
перегрева
1002.6 998.6
00 18.07 Ю 4 8000 м дымка 10/0
[Cs]
+27.5 +24.8 85 +39 +40 очень
душно
1002.9 998.9 +26.3
03 18.07 Ю 2 8000 м мгла 8/1 600 м
[Cu hum Cs]
+31.5 +23.6 63 +43 +54 опасность
перегрева
1003.7 999.8
06 18.07 ЮЗ 1 9000 м мгла 8/3 600 м
[Cu med, cong Cs]
+34.2 +24.3 56 +46 +61 опасность
перегрева
1002.5 998.7
09 18.07 Ю 6 9000 м мгла 8/3 600 м
[Cu med, cong Cs]
+35.0 +25.2 57 +49 +51 опасность
перегрева
1000.5 996.7
12 18.07 Ю 1 8000 м дымка 10/3 600 м
[Cu med, cong Cs]
+32.6 +26.2 69 +49 +49 опасность
перегрева
1001.2 997.3 +35.6
15 18.07 штиль 0 7000 м дымка 9/1 600 м
[Cu hum Cs]
+29.4 +25.4 79 +43 +43 опасность
перегрева
1003.2 999.3
18 18.07 штиль 0 7000 м дымка 8/0
[Cs]
+28.1 +25.8 87 +42 +42 опасность
перегрева
1003.1 999.2
21 18.07 штиль 0 7000 м дымка 8/0
[Cs]
+26.9 +24.9 89 +39 +39 очень
душно
1002.5 998.5
00 19.07 штиль 0 6000 м дымка 9/0
[Cs]
+27.7 +25.1 86 +40 +42 очень
душно
1003.8 999.8 +26.1
03 19.07 штиль 0 8000 м мгла 8/1 600 м
[Cu hum Cs]
+32.9 +24.4 61 +45 +61 опасность
перегрева
1004.8 1000.9
06 19.07 З 3 10 км 8/3 600 м
[Cu hum Cs]
+35.9 +24.0 50 +47 +58 опасность
перегрева
1003.5 999.7
09 19.07 С 1 10 км 8/1 600 м
[Cu med, cong Cs]
+36.8 +22.7 44 +46 +53 опасность
перегрева
1001.0 997.1
12 19.07 Ю 3 10 км 8/1 600 м
[Cb cap Cs]
+33.1 +25.5 64 +48 +48 опасность
перегрева
1002.0 998.1 +37.0
15 19.07 Ю 6 8000 м дымка 8/1 600 м
[Cu hum Cs]
+31.0 +24.4 68 +43 +43 опасность
перегрева
1004.0 1000.1
18 19.07 Ю 6 8000 м дымка 8/0
[Cs]
+28.0 +24.1 79 +39 +39 очень
душно
1004.4 1000.5
21 19.07 В 3 7000 м дымка 8/0
[Cs]
+26.6 +24.9 90 +38 +38 очень
душно
1004.1 1000.1
00 20.07 Ю 3 8000 м дымка 9/0
[Cs]
+27.0 +24.4 86 +38 +39 очень
душно
1005.8 1001.9 +25.8
03 20.07 ЮВ 2 10 км 9/1 600 м
[Cu med, cong Cs]
+31.2 +25.0 70 +45 +56 опасность
перегрева
1007.0 1003.1
06 20.07 З 4 10 км 9/3 600 м
[Cu med, cong Cs]
+34.5 +24.6 56 +47 +55 опасность
перегрева
1004.8 1000.9
09 20.07 штиль 0 10 км 9/3 600 м
[Cu med, cong Cs]
+35.8 +23.8 50 +47 +53 опасность
перегрева
1002.2 998.4
12 20.07 Ю 4 10 км 9/1 600 м
[Cu med, cong Cs]
+33.0 +25.3 64 +47 +47 опасность
перегрева
1002.4 998.5 +36.0
15 20.07 ЮВ 4 8000 м дымка 9/1 600 м
[Cu hum Cs]
+30.5 +25.6 75 +45 +45 опасность
перегрева
1005.3 1001.4
18 20.07 ЮВ 8 6000 м дымка 9/1 600 м
[Cu hum Cs]
+27.7 +24.8 84 +39 +39 очень
душно
1005.7 1001.8
21 20.07 В 6 6000 м дымка 9/0
[Cs]
+27.1 +24.8 87 +39 +39 очень
душно
1005.2 1001.2
00 21.07 ЮВ 6 8000 м дымка 9/0
[Ac lent Cs]
+28.0 +25.7 87 +41 +42 опасность
перегрева
1006.9 1003.0 +26.7
03 21.07 Ю 4 8000 м дымка 9/3 600 м
[Sc Cs]
+30.8 +25.1 72 +45 +51 опасность
перегрева
1006.9 1003.0
06 21.07 ЮВ 6 10 км 9/3 600 м
[Cu med, cong Cs]
+34.2 +24.7 58 +47 +52 опасность
перегрева
1006.2 1002.4

 

Местоположение метеостанции Пичит Агромет (Таиланд): широта 16.43 долгота 100.28 высота над уровнем моря 38 м.

В архиве по умолчанию представлена погода в Пичит Агромете за последнюю неделю. Архивные данные за месяц целиком и за предыдущие месяцы, начиная с января 2011 года, Вы можете получить, выбрав интересующий диапазон дат из раскрывающегося списка и нажав кнопку "Ввод!".


*Определитесь, кто Вы:
робот инопланетянин человек

Внимание! Время в таблицах - всемирное. Для получения местного времени необходимо прибавить поправку, которая равна 7 ч.

Смотрите также архив погоды в соседних городах и на ближайших метеорологических станциях:

Погода в Пхитсанулоке (Таиланд) (39 км)
Погода в Накхон Саван (Таиланд) (71 км)
Погода в Кампхэнгпхете (Таиланд) (80 км)
Погода в Сукхотаи (Таиланд) (90 км)
Погода в Пхетчабуне (Таиланд) (93 км)
Погода в Си Самронг Агромете (Таиланд) (93 км)
Погода в Ломсаке (Таиланд) (110 км)
Погода в Утай Тани (Таиланд) (120 км)
Погода в Такфа Агромете (Таиланд) (122 км)
Погода в Вичан Бури (Таиланд) (126 км)

Пояснения к столбцам:

Ветер - указаны скорость ветра в м/с - средняя за 10 мин, порывы в срок и между сроками (в фигурных скобках) и направление, откуда дует ветер: С - северный, СВ - северо-восточный, В - восточный, ЮВ - юго-восточный, Ю - южный, ЮЗ - юго-западный, З - западный, СЗ - северо-западный.
Видимость - горизонтальная дальность видимости в метрах или километрах. При видимости от 1 до 10 км при отсутствии осадков обычно наблюдается дымка, при ухудшении видимости до 1 км и менее - туман. В сухую погоду видимость может ухудшаться дымом, пылью или мглою.
Явления - указаны атмосферные явления, наблюдавшиеся в срок или в последний час перед сроком; фигурными скобками обозначены явления, наблюдавшиеся между сроками (за 1-3 часа до срока); квадратными скобками обозначены град или гололедные отложения с указанием их диаметра в мм.
Облачность - указаны через наклонную черту общая и нижняя облачность в баллах и высота нижней границы облаков в метрах; квадратными скобками обозначены формы облаков: Ci - перистые, Cs - перисто-слоистые, Cc - перисто-кучевые, Ac - высококучевые, As - высокослоистые, Sc - слоисто-кучевые, Ns - слоисто-дождевые, Cu - кучевые, Cb - кучево-дождевые. Подробнее классификацию облаков см. в Атласе облаков (PDF).
T - Температура воздуха - температура, измеренная на высоте 2 м над землей.
Td - Температура точки росы - температура, при понижении до которой содержащийся в воздухе водяной пар достигнет насыщения.
f - Относительная влажность воздуха - влажноcть воздуха, измеренная на высоте 2 м над землей.
Te - Эффективная температура - температура, которую ощущает одетый по сезону человек в тени. Характеристика душности погоды. При расчете учитывается влияние влажности воздуха и скорости ветра на теплоощущения человека.
Tes - Эффективная температура на солнце - температура, которую ощущает человек, с поправкой на солнечный нагрев. Характеристика знойности погоды. Зависит от высоты солнца над горизонтом, облачности и скорости ветра. Ночью, в пасмурную погоду, а также при ветре 12 м/с и более поправка равна нулю.
P - Атмосферное давление - приведенное к уровню моря атмосферное давление.
Po - Атмосферное давление - измеренное на уровне метеостанции атмосферное давление.
Tmin - Минимальная температура - минимум температуры воздуха на высоте 2 м над землей.
Tmax - Максимальная температура - максимум температуры воздуха на высоте 2 м над землей.
R - Количество осадков - Количество выпавших осадков за период времени, мм. При наведении курсора мыши на число - период времени, за который выпало указанное количество осадков.
R24 - Количество осадков - Количество выпавших осадков за 24 часа, мм.
S - Снежный покров - Высота снежного покрова, см. При наведении курсора мыши на число - состояние снежного покрова и степень покрытия местности в баллах.